Regional Weather Roundup
Issued by NWS

Home | Current Version | Previous Version | Graphics & Text | Print | Product List | Glossary Off
Versions: 1 2 3 4 5 6 7 8 9 10 11 12 13 14 15 16 17 18 19 20 21 22 23 24 25 26 27 28 29 30 31 32 33 34 35 36 37 38 39 40 41 42 43 44 45 46 47 48 49 50

921
ASUS43 KMKX 250900
RWRWI

WISCONSIN REGIONAL WEATHER ROUNDUP
NATIONAL WEATHER SERVICE MILWAUKEE/SULLIVAN WI
400 AM CDT WED APR 25 2018

NOTE: "FAIR" INDICATES FEW OR NO CLOUDS BELOW 12,000 FEET WITH NO
SIGNIFICANT WEATHER AND/OR OBSTRUCTIONS TO VISIBILITY.

WIZ001-002-006>008-014>016-023>028-251000-
NORTHWEST WISCONSIN

CITY           SKY/WX    TMP DP  RH WIND       PRES   REMARKS
SUPERIOR ARPT  FAIR      28  23  80 NW3       30.28F
ASHLAND        FAIR      26  22  84 NW3       30.26F
HAYWARD        FAIR      27  23  85 CALM      30.24F
SIREN          FAIR      31  22  70 N3        30.27R
CUMBERLAND     FAIR      32  23  69 N5        30.23F WCI  27
RICE LAKE      FAIR      34  26  72 N3        30.25S
CHETEK         FAIR      32  27  82 N3        30.23S
LADYSMITH      FAIR      32  27  80 N7        30.24R WCI  26
EAU CLAIRE     NOT AVBL
MENOMONIE      FAIR      35  28  76 N6        30.23R WCI  30
NEW RICHMOND   FAIR      34  25  68 N8        30.24S WCI  27
OSCEOLA        FAIR      36  25  64 N5        30.28S WCI  32
$$

WIZ003>005-009-010-017-018-251000-
NORTH CENTRAL WISCONSIN

CITY           SKY/WX    TMP DP  RH WIND       PRES   REMARKS
MANITOWISH WTR FAIR      29  29 100 N3        30.20S
ARBOR VITAE    FAIR      32  31  95 CALM      30.19S
WOODRUFF       FAIR      32  31  95 CALM      30.19S
RHINELANDER    FAIR      31  29  92 N3        30.18R
EAGLE RIVER    FAIR      29  28  92 N6        30.18R WCI  23
LAND O LAKES   FAIR      30  28  94 CALM      30.20R
PHILLIPS       FAIR      28  27  96 N5        30.20S WCI  23
TOMAHAWK       FAIR      29  28  97 CALM      30.19R
MEDFORD        FAIR      31  29  92 N6        30.18R WCI  25
MERRILL        FAIR      32  32 100 N5        30.19R WCI  27
$$

WIZ029-030-035-036-043>047-251000-
CENTRAL WISCONSIN

CITY           SKY/WX    TMP DP  RH WIND       PRES   REMARKS
WAUSAU         FAIR      35  33  92 N9        30.15R WCI  28
MOSINEE        FAIR      36  34  93 N9        30.17S WCI  29
MARSHFIELD     FAIR      36  34  92 N8        30.15S WCI  30
STEVENS POINT  FAIR      35  34  99 N5        30.17R WCI  31
WAUPACA        FAIR      41  35  79 CALM      30.16R
WAUTOMA        FAIR      41  35  79 N6        30.15R
WISC RAPIDS    FAIR      38  33  82 N7        30.17R WCI  33
CAMP DOUGLAS   NOT AVBL
$$

WIZ011>013-019>022-031-037>040-048>050-251000-
NORTHEAST WISCONSIN

CITY           SKY/WX    TMP DP  RH WIND       PRES   REMARKS
ANTIGO         FAIR      32  31  97 N8        30.16S WCI  25
SHAWANO        FAIR      38  35  87 N7        30.15S WCI  33
OCONTO         FAIR      37  34  89 N7        30.15R WCI  32
STURGEON BAY   FAIR      36  31  82 N13       30.14R WCI  27
GREEN BAY      FAIR      39  35  86 N12       30.14S WCI  32
MANITOWOC      NOT AVBL
APPLETON       FAIR      39  32  75 N10       30.12S WCI  32
CLINTONVILLE   FAIR      38  34  84 N6        30.15S WCI  34
OSHKOSH        FAIR      40  35  83 N9        30.13R WCI  34
$$

WIZ032>034-041-042-053>061-251000-
SOUTHWEST WISCONSIN

CITY           SKY/WX    TMP DP  RH WIND       PRES   REMARKS
LA CROSSE      FAIR      38  33  82 N9        30.18R WCI  31
SPARTA         FAIR      36  34  92 N5        30.18R WCI  32
VIROQUA        FAIR      39  36  91 N7        30.16R WCI  34
BOSCOBEL       FAIR      43  34  70 CALM      30.15R
PRAIRIE DU CHI FAIR      47  32  56 N7        30.14R
PLATTEVILLE    FAIR      42  33  72 N6        30.12R
$$

WIZ056-057-062-063-064-067-068-251000-
SOUTH CENTRAL WISCONSIN

CITY           SKY/WX    TMP DP  RH WIND       PRES   REMARKS
REEDSBURG      FAIR      42  37  80 N3        30.14R
BARABOO/DELLS  FAIR      42  32  68 N5        30.13R
LONE ROCK      NOT AVBL
MINERAL POINT  FAIR      45  32  61 NE6       30.11R
MADISON        FAIR      42  30  62 NE9       30.11S
MIDDLETON      FAIR      44  32  63 NE6       30.12R
WATERTOWN      FAIR      42  32  68 N7        30.10S
MONROE         FAIR      45  32  61 NE12      30.09R
JANESVILLE     FAIR      45  32  61 NE7       30.10R
$$

WIZ051-052-058>065-066-070>072-251000-
SOUTHEAST WISCONSIN

CITY           SKY/WX    TMP DP  RH WIND       PRES   REMARKS
MILWAUKEE      FAIR      42  34  73 N15G31    30.09R
WAUKESHA       FAIR      39  32  75 NE10      30.10S WCI  32
MILWAUKEE/TIMM FAIR      41  32  70 N16       30.11R
RACINE         FAIR      40  34  79 N17G26    30.09S WCI  31
BURLINGTON     FAIR      43  31  62 N14       30.09R
KENOSHA        FAIR      43  31  62 N15G28    30.07S
FOND DU LAC    FAIR      41  34  76 NE10      30.13R
SHEBOYGAN      FAIR      40  35  83 N6        30.11S
WEST BEND      FAIR      39  32  75 NE5       30.11R
JUNEAU         FAIR      39  32  76 N5        30.12S
$$

LSZ147-162-251000-
LAKE SUPERIOR

STATION/POSITION TIME  TEMP    WIND        PRES    WAVE
                       AIR SEA DIR/SP/G            HT/PER
                 (UTC) (F)     (DEG/KT/KT) (MB)    (FT/S)
DEVILS ISLAND    0800   35     360/ 10/ 11 1025.9F
SAXON HARBOR     0830   28     180/  2/  3 1024.0S
$$

LMZ867-665-643>646-251000-
LAKE MICHIGAN

STATION/POSITION TIME  TEMP    WIND        PRES    WAVE
                       AIR SEA DIR/SP/G            HT/PER
                 (UTC) (F)     (DEG/KT/KT) (MB)    (FT/S)
NORTHPORT PIER   0840   35                 1020.0S
KEWAUNEE LAKESHO 0830   41     350/  7/ 12 1019.0F
SHEBOYGAN LAKESH 0800   39      10/ 15/ 16 1020.1F
PORT WASHINGTON  0830   42      20/  7/ 12 1020.7R
MILWAUKEE LAKESH 0830   41      10/ 20/ 25   N/A
KENOSHA   LAKESH 0800   42                 1017.6
$$

TC  - TEMPERATURE IN CELSIUS
VSB - VISIBILITY IN STATUTE MILES
WCI - WIND CHILL INDEX
HX  - HEAT INDEX





USA.gov is the U.S. government's official web portal to all federal, state and local government web resources and services.